Showing default

ZHUHAI-1 03C, 44537

Orbit data source: Space-Track

ZHUHAI-1 03C, 44537 is a payload satellite owned by Zhuhai Orbita (CN) in SSO that was launched on Thu, 19 Sep 2019 UTC via a CHANG ZHENG 11 launch vehicle from the Jiuquan Satellite Launch Center, China (JSC). Payload-class satellites include a variety of spacecraft equipped with specific instruments for various scientific and technological missions. These include communications satellites like Starlink; space stations such as the ISS; scientific satellites like the Hubble; Earth observation satellites from companies like Planet Labs, Umbra, and HawkEye 360; GPS; miniature CubeSats for education and research; and military/defense satellites.

Loading next visibility...
Identifier
44537, 2019-060D
Orbit
SSO
Country
Flag of CNCN / PRC
Related business
Manufacturer
Harbin
Mission
Operational Commercial Imaging
Bus & Motor
OHS-1, Unknown motor
Mass
69 kg wet, 69 kg dry
Launch date (UTC)
2019-09-19 (6 years ago)
Launch vehicle
CHANG ZHENG 11
Launch site
Jiuquan Satellite Launch Center, China (JSC)
Object type
Payload
Rocket body
Debris
Shape & HBR
Box, Unknown HBR
Radar Cross Section
0.280 m², Medium (>0.1 m² and < 1m²)

Expand to show TLE details & history
Last TLE update: 22 hours ago

TLE from 22 hours ago
0 ZHUHAI-1 03C
1 44537U 19060D   25348.91127009  .00042537  00000-0  58372-3 0  9999
2 44537  97.5533 140.3427 0013741 229.9158 130.0893 15.57118944348239
Epoch: 2025-12-14T21:52Z
TLE epoch observation values (Epoch: 2025-12-14T21:52:13.735Z)
Latitude
-0.00002°
Longitude
88.46808°
Altitude
405.139 km
Speed
7.664 km/s
True Right ascension
09h 21m 22s
True Declination
0° 00' 00"
Sunlit
Object was in full shadow at epoch
Visualization orbit readout
Latitude
Unknown
Longitude
Unknown
Altitude
Unknown
Speed
Unknown
Apparent Right ascension
Unknown
Apparent Declination
Unknown
Sunlit
N/A
Visualization observer readout
Local Sidereal Time
18:19:51
Azimuth
Unknown
Elevation
Unknown
Doppler factor
Unknown
Orbital elements
Apogee altitude
402.227 km
Perigee altitude
383.619 km
Semi-major axis
6,771.06 km
Eccentricity
0.00137
Inclination
97.5533°
RAAN
140.3427°
Arg. of periapsis
229.9158°
True anomaly
130.20963°
Mean anomaly
130.0893°
Eccentric anomaly
130.14948°
Mean motion
3.89545 °/min
Orbital period
92.42 mins
BSTAR
0.00058372
Loading maneuver chart data...
Computing Atmospheric mass density...
Loading historical data...
Loading historical data...
Loading historical data...
Loading historical data...
Loading historical data...
Loading historical data...
Loading historical data...

Documentation

Showing up to 5 results
|